Location: Borovka
(49.7741°N, 14.5280°E)
Time: 09:27:34
(UTC+00:00)

LilacSat-2 - Pass Details

Date: 20 March 2026
Orbit: 412 x 424 km, 97.5° (Epoch: 20 April)

Event Time Altitude Azimuth Distance (km) Brightness Sun altitude
Rises 18:23:29 0° 179° (S) 2,389 ? -11.8°
Reaches altitude 10° 18:25:32 10° 185° (S) 1,528 ? -12.1°
Maximum altitude 18:28:42 46° 260° (W) 594 ? -12.6°
Drops below altitude 10° 18:31:53 10° 335° (NNW) 1,539 ? -13.1°
Sets 18:33:58 0° 342° (NNW) 2,410 ? -13.4°
